| time (UTC) | temp F | wind direction | speed MPH | gust MPH | rain 1hr in | rain 24hr in | rain mn in | humidity % | barometer mb |
| 20260505013812 | 80 | 146 | 0.0 | 1.0 | 0.00 | 0.00 | 0.00 | 75 | 985.0 |
| 20260505013311 | 80 | 172 | 0.0 | 0.0 | 0.00 | 0.00 | 0.00 | 75 | 985.0 |
| 20260505012811 | 79 | 140 | 0.0 | 0.0 | 0.00 | 0.00 | 0.00 | 75 | 985.0 |
| 20260505012312 | 79 | 91 | 1.0 | 1.0 | 0.00 | 0.00 | 0.00 | 76 | 985.0 |
| 20260505011815 | 79 | 69 | 0.0 | 1.0 | 0.00 | 0.00 | 0.00 | 76 | 985.0 |
| 20260505011312 | 79 | 114 | 0.0 | 0.0 | 0.00 | 0.00 | 0.00 | 76 | 985.0 |
| 20260505010811 | 79 | 126 | 0.0 | 0.0 | 0.00 | 0.00 | 0.00 | 76 | 985.0 |
| 20260505010312 | 79 | 124 | 0.0 | 0.0 | 0.00 | 0.00 | 0.00 | 77 | 985.0 |
| 20260505005811 | 79 | 122 | 0.0 | 0.0 | 0.00 | 0.00 | 0.00 | 77 | 985.0 |
| 20260505005311 | 79 | 62 | 1.0 | 1.0 | 0.00 | 0.00 | 0.00 | 77 | 985.0 |
| 20260505004811 | 78 | 123 | 0.0 | 0.0 | 0.00 | 0.00 | 0.00 | 77 | 985.0 |
| 20260505004311 | 78 | 121 | 0.0 | 0.0 | 0.00 | 0.00 | 0.00 | 77 | 985.0 |
| 20260505003813 | 78 | 130 | 0.0 | 0.0 | 0.00 | 0.00 | 0.00 | 78 | 985.0 |
| 20260505003314 | 78 | 124 | 0.0 | 0.0 | 0.00 | 0.00 | 0.00 | 78 | 985.0 |
| 20260505002811 | 79 | 130 | 0.0 | 0.0 | 0.00 | 0.00 | 0.00 | 78 | 985.0 |
| 20260504172811 | 81 | 132 | 0.0 | 0.0 | 0.00 | 0.00 | 0.08 | 70 | 986.0 |
| 20260504172314 | 81 | 122 | 0.0 | 0.0 | 0.00 | 0.00 | 0.08 | 69 | 986.0 |
| 20260504171812 | 80 | 88 | 2.0 | 2.0 | 0.00 | 0.00 | 0.08 | 70 | 986.0 |
| 20260504171312 | 80 | 112 | 2.0 | 3.0 | 0.00 | 0.00 | 0.08 | 70 | 986.0 |
| 20260504170811 | 80 | 37 | 7.0 | 10.0 | 0.00 | 0.00 | 0.08 | 70 | 986.0 |
| 20260504170312 | 80 | 104 | 3.0 | 4.0 | 0.00 | 0.00 | 0.08 | 70 | 986.0 |
| 20260504160313 | 81 | 204 | 1.0 | 1.0 | 0.00 | 0.00 | 0.08 | 68 | 985.0 |
| 20260504150812 | 84 | 124 | 2.0 | 4.0 | 0.00 | 0.00 | 0.08 | 65 | 984.0 |
| 20260504150315 | 84 | 118 | 2.0 | 2.0 | 0.00 | 0.00 | 0.08 | 65 | 984.0 |
| 20260504141315 | 84 | 110 | 1.0 | 1.0 | 0.00 | 0.00 | 0.08 | 63 | 983.0 |
| 20260504140815 | 84 | 116 | 0.0 | 0.0 | 0.00 | 0.00 | 0.08 | 63 | 983.0 |
| 20260504140312 | 84 | 117 | 0.0 | 0.0 | 0.00 | 0.00 | 0.08 | 64 | 983.0 |
| 20260504130815 | 86 | 147 | 0.0 | 1.0 | 0.00 | 0.00 | 0.08 | 60 | 982.0 |
| 20260504130315 | 86 | 221 | 1.0 | 1.0 | 0.00 | 0.00 | 0.08 | 59 | 981.0 |
| 20260504120312 | 87 | 111 | 1.0 | 1.0 | 0.00 | 0.00 | 0.08 | 54 | 981.0 |
| 20260504110311 | 86 | 129 | 6.0 | 9.0 | 0.00 | 0.00 | 0.08 | 66 | 981.0 |
| 20260504100312 | 98 | 114 | 0.0 | 0.0 | 0.00 | 0.00 | 0.08 | 52 | 980.0 |
| 20260504081812 | 95 | 183 | 3.0 | 3.0 | 0.00 | 0.00 | 0.08 | 59 | 982.0 |
| 20260504081311 | 95 | 165 | 2.0 | 2.0 | 0.00 | 0.00 | 0.08 | 59 | 982.0 |
| 20260504080811 | 94 | 125 | 2.0 | 3.0 | 0.00 | 0.00 | 0.08 | 60 | 982.0 |
| 20260504080312 | 94 | 156 | 2.0 | 3.0 | 0.00 | 0.00 | 0.08 | 61 | 982.0 |
| 20260504070311 | 93 | 134 | 2.0 | 2.0 | 0.00 | 0.00 | 0.08 | 63 | 983.0 |
| 20260504050311 | 91 | 144 | 2.0 | 2.0 | 0.00 | 0.00 | 0.08 | 58 | 985.0 |
| 20260504045811 | 91 | 117 | 0.0 | 1.0 | 0.00 | 0.00 | 0.08 | 57 | 985.0 |
| 20260504045312 | 89 | 160 | 1.0 | 1.0 | 0.00 | 0.00 | 0.08 | 61 | 985.0 |
| 20260504044811 | 89 | 179 | 2.0 | 2.0 | 0.00 | 0.00 | 0.08 | 60 | 985.0 |
| 20260504044311 | 89 | 155 | 1.0 | 1.0 | 0.00 | 0.00 | 0.08 | 62 | 985.0 |
| 20260504043811 | 88 | 168 | 2.0 | 2.0 | 0.00 | 0.00 | 0.08 | 62 | 985.0 |
| 20260504043311 | 88 | 128 | 0.0 | 0.0 | 0.00 | 0.00 | 0.08 | 64 | 985.0 |
| 20260504042811 | 87 | 179 | 1.0 | 1.0 | 0.00 | 0.00 | 0.08 | 64 | 985.0 |
| 20260504042312 | 86 | 120 | 0.0 | 0.0 | 0.00 | 0.00 | 0.08 | 65 | 985.0 |
| 20260504041812 | 86 | 118 | 0.0 | 0.0 | 0.00 | 0.00 | 0.08 | 66 | 985.0 |
| 20260504041311 | 86 | 119 | 0.0 | 0.0 | 0.00 | 0.00 | 0.08 | 67 | 985.0 |
| 20260504040811 | 86 | 135 | 1.0 | 2.0 | 0.00 | 0.00 | 0.08 | 66 | 985.0 |
| 20260504040311 | 86 | 191 | 1.0 | 1.0 | 0.00 | 0.00 | 0.08 | 65 | 985.0 |
| 20260504035811 | 86 | 115 | 1.0 | 2.0 | 0.00 | 0.00 | 0.08 | 67 | 985.0 |
| 20260504035312 | 85 | 162 | 2.0 | 2.0 | 0.00 | 0.00 | 0.08 | 68 | 985.0 |
| 20260504034811 | 85 | 198 | 1.0 | 2.0 | 0.00 | 0.00 | 0.08 | 68 | 986.0 |
| 20260504034312 | 86 | 159 | 1.0 | 2.0 | 0.00 | 0.00 | 0.08 | 66 | 986.0 |
| 20260504033811 | 85 | 153 | 3.0 | 3.0 | 0.00 | 0.00 | 0.08 | 67 | 985.0 |
| 20260504033312 | 85 | 162 | 1.0 | 1.0 | 0.00 | 0.00 | 0.08 | 70 | 985.0 |
| 20260504032812 | 85 | 161 | 1.0 | 1.0 | 0.00 | 0.00 | 0.08 | 68 | 985.0 |
| 20260504032312 | 85 | 141 | 0.0 | 1.0 | 0.00 | 0.00 | 0.08 | 69 | 985.0 |
| 20260504031812 | 83 | 115 | 0.0 | 0.0 | 0.00 | 0.00 | 0.08 | 73 | 985.0 |
| 20260504031311 | 84 | 98 | 1.0 | 1.0 | 0.00 | 0.00 | 0.08 | 72 | 985.0 |
| 20260504030812 | 83 | 122 | 0.0 | 0.0 | 0.00 | 0.00 | 0.08 | 73 | 985.0 |
| 20260504030311 | 82 | 119 | 1.0 | 1.0 | 0.00 | 0.00 | 0.08 | 75 | 985.0 |
| 20260504025812 | 82 | 112 | 0.0 | 0.0 | 0.00 | 0.00 | 0.08 | 75 | 985.0 |
| 20260504025311 | 82 | 113 | 1.0 | 1.0 | 0.00 | 0.00 | 0.08 | 74 | 985.0 |
| 20260504024811 | 82 | 112 | 1.0 | 1.0 | 0.00 | 0.00 | 0.08 | 75 | 985.0 |
| 20260504024311 | 81 | 132 | 0.0 | 0.0 | 0.00 | 0.00 | 0.08 | 77 | 985.0 |
| 20260504023812 | 81 | 155 | 0.0 | 1.0 | 0.00 | 0.00 | 0.08 | 76 | 985.0 |
| 20260504023312 | 80 | 110 | 1.0 | 1.0 | 0.00 | 0.00 | 0.08 | 78 | 985.0 |
| 20260504022812 | 79 | 100 | 0.0 | 1.0 | 0.00 | 0.00 | 0.08 | 79 | 985.0 |
| 20260504022312 | 79 | 33 | 1.0 | 2.0 | 0.00 | 0.00 | 0.08 | 80 | 985.0 |
| 20260504021811 | 79 | 90 | 1.0 | 1.0 | 0.00 | 0.00 | 0.08 | 80 | 985.0 |
| 20260504021311 | 79 | 111 | 0.0 | 1.0 | 0.00 | 0.00 | 0.08 | 80 | 985.0 |
| 20260504020811 | 79 | 119 | 1.0 | 1.0 | 0.00 | 0.00 | 0.08 | 80 | 984.0 |
| 20260504020311 | 79 | 122 | 0.0 | 1.0 | 0.00 | 0.00 | 0.08 | 81 | 984.0 |
| 20260504015811 | 79 | 105 | 0.0 | 1.0 | 0.00 | 0.00 | 0.08 | 81 | 984.0 |
| 20260504015311 | 78 | 53 | 1.0 | 2.0 | 0.00 | 0.00 | 0.08 | 80 | 984.0 |
| 20260504014812 | 79 | 84 | 2.0 | 2.0 | 0.00 | 0.00 | 0.08 | 81 | 984.0 |
| 20260504014311 | 78 | 115 | 0.0 | 0.0 | 0.00 | 0.00 | 0.08 | 80 | 984.0 |